Theta_e
352 350 349 348 349 350 351 350 350 352 350 349 349 349 346 346 345 346 346 347 346 344 344 344 345 344 343 341 340 338 338 345 342 341 337 342 342 345 342 337 342 341 342
351 349 349 347 348 350 350 350 350 351 351 350 349 349 349 348 345 345 345 348 346 343 343 343 344 345 344 345 342 341 338 342 344 344 342 340 337 341 341 342 340 340 341
350 349 348 347 347 349 352 350 349 352 351 350 348 350 347 347 347 347 346 345 348 345 345 342 343 344 344 344 344 344 343 342 341 340 340 340 341 339 336 342 343 342 341
351 350 349 347 347 350 350 350 350 351 350 349 347 347 348 347 348 347 347 348 349 350 348 346 346 343 343 344 344 343 342 342 343 342 341 341 340 334 335 335 334 334 336
349 351 347 346 347 349 350 350 350 350 350 348 346 346 346 346 346 346 347 349 348 350 350 349 349 348 346 344 343 343 342 342 342 342 342 342 341 341 337 336 337 334 338
346 342 343 345 338 345 346 349 350 348 349 347 346 346 347 347 347 348 347 348 348 353 348 343 350 350 349 347 344 342 342 342 342 342 342 342 342 342 341 341 340 338 337
347 346 343 348 349 345 347 351 352 351 348 346 346 346 346 347 345 347 349 351 352 353 352 349 349 350 353 350 347 346 344 343 342 343 343 343 343 342 341 341 340 341 340
350 350 349 344 346 344 343 346 345 346 346 346 348 350 347 347 345 349 349 350 351 351 349 351 351 352 353 350 349 346 346 345 344 343 344 344 343 342 341 341 341 341 341
349 348 346 343 341 343 343 344 348 349 349 348 351 348 349 352 345 347 350 349 348 348 349 350 351 351 353 353 351 348 347 346 345 343 342 343 343 342 341 342 342 341 340
348 349 349 344 343 342 346 343 344 349 349 349 351 348 346 343 346 348 348 348 347 348 348 348 348 349 349 350 349 347 344 343 344 343 343 342 342 342 342 341 341 340 338
347 343 341 341 342 344 349 349 350 348 349 349 350 346 343 343 342 347 348 348 345 343 343 345 346 346 347 348 347 343 341 342 342 342 342 341 341 339 340 339 339 338 339
347 344 339 332 336 336 341 344 345 346 347 346 344 344 342 349 349 348 352 349 346 338 340 339 341 343 344 344 342 340 340 340 340 340 339 339 340 340 339 339 338 338 338
347 347 347 347 340 341 341 345 347 347 345 347 346 346 347 347 348 348 348 349 345 338 336 337 339 340 342 342 339 339 339 340 340 340 340 340 339 338 336 335 337 337 337
345 349 348 348 349 347 341 344 347 349 349 349 349 349 349 347 347 350 349 349 344 339 335 334 336 337 338 337 336 337 338 339 340 340 339 337 336 334 335 338 338 337 336
344 345 345 345 347 348 348 344 342 341 344 344 344 345 346 346 347 347 350 346 345 344 338 333 333 334 335 335 335 335 335 335 335 335 334 332 330 331 333 334 334 333 333
346 344 343 343 346 346 345 346 346 345 345 347 346 347 348 347 345 346 348 347 344 345 342 335 332 333 333 334 334 333 331 330 329 328 327 327 327 329 329 329 328 328 328
346 345 344 346 345 345 344 344 344 344 343 345 345 345 346 347 347 346 350 346 345 345 342 331 331 331 332 332 332 331 331 329 326 325 325 324 325 326 327 327 326 325 325
345 345 343 343 343 343 342 343 341 340 341 342 343 343 344 345 347 348 349 347 345 344 340 332 329 329 330 330 331 331 331 330 327 323 322 323 324 325 325 325 324 324 323
345 344 343 343 342 342 341 341 341 341 341 341 341 343 343 344 345 347 348 349 345 343 338 331 328 327 327 328 329 331 330 328 327 320 320 319 320 322 323 323 323 322 321
345 345 344 343 342 342 340 339 337 337 340 340 341 341 341 342 344 345 346 346 345 342 338 330 328 326 326 327 327 328 328 326 322 322 320 320 317 317 318 319 319 318 317
344 344 344 343 343 341 340 340 338 337 339 339 340 340 340 337 338 341 342 345 342 339 335 332 327 325 324 324 326 329 329 328 324 324 322 319 319 317 315 313 311 308 305
345 344 344 343 342 341 336 335 332 337 338 339 339 338 339 334 333 335 339 341 341 339 335 333 330 328 327 326 328 328 327 326 326 324 324 321 320 318 316 315 311 305 304
347 346 345 344 343 340 337 336 331 334 336 336 337 338 336 334 335 336 333 337 339 339 338 336 333 330 327 327 328 325 325 328 328 322 322 324 323 321 319 317 315 307 305
349 347 347 345 344 341 336 334 332 330 334 335 334 336 337 337 336 336 336 336 336 335 334 334 333 332 331 329 328 329 328 327 325 327 324 327 325 323 321 319 316 308 306
348 346 345 345 344 340 335 335 333 330 334 335 335 334 333 335 334 332 336 336 335 335 333 334 334 335 334 332 330 327 327 327 327 327 327 329 324 324 321 320 318 310 307
346 344 344 343 342 340 336 333 333 331 333 335 334 334 331 331 333 325 333 334 334 334 332 330 330 331 333 332 329 329 330 328 329 331 329 328 327 326 324 323 317 315 308
Wind_Speed
10 10 11 10 11 10 11 7 9 7 10 10 11 10 11 11 12 10 15 16 8 9 10 11 13 12 13 11 12 12 13 15 13 12 11 11 12 11 10 9 10 10 10
14 12 12 11 11 8 8 9 10 9 9 12 11 11 13 13 13 12 12 12 11 10 14 13 12 15 15 14 13 13 15 16 15 16 13 12 12 13 13 11 10 11 12
11 14 13 13 11 10 7 7 6 7 8 10 8 7 11 12 12 13 13 15 11 13 13 15 13 15 16 16 17 16 15 16 16 16 16 15 13 13 14 14 13 13 14
12 13 11 11 12 10 10 10 8 11 13 13 11 11 10 11 13 13 14 14 14 9 16 12 14 17 17 18 17 17 16 15 17 17 17 17 16 17 14 15 16 18 19
17 14 13 13 10 11 14 12 11 11 12 11 9 14 13 13 15 16 16 16 15 16 11 15 17 15 17 20 20 19 19 17 15 15 16 18 18 19 18 17 19 20 15
18 19 19 15 16 12 14 16 12 14 16 15 13 14 7 9 15 16 15 16 14 11 19 19 18 15 13 18 23 20 20 19 17 16 15 15 18 20 22 19 18 18 18
20 19 20 14 12 14 15 9 10 12 12 13 11 13 14 15 17 18 13 12 7 10 14 17 17 13 15 21 17 19 23 21 18 17 17 16 16 18 21 20 19 18 19
15 16 15 19 11 12 15 15 15 15 17 17 8 6 7 7 11 12 12 10 8 9 12 14 11 12 15 16 8 12 21 23 18 18 18 16 15 15 16 17 16 15 14
9 13 14 17 17 15 18 16 16 17 17 13 10 8 2 3 1 7 8 5 4 7 8 9 8 7 9 11 9 7 12 13 13 13 14 14 12 11 10 12 13 13 11
6 7 9 11 13 15 16 21 20 21 18 15 9 12 10 4 1 2 5 3 1 1 3 2 6 6 7 7 5 6 5 5 7 8 8 8 8 6 7 9 11 13 4
6 11 8 10 13 17 15 15 16 16 19 15 14 8 11 16 20 5 4 4 2 1 1 4 6 4 3 1 6 2 4 5 7 7 7 7 5 4 4 3 4 3 5
8 9 11 9 9 10 12 9 9 11 11 12 13 15 14 9 12 12 7 6 4 1 2 4 3 3 5 9 7 7 7 8 9 9 9 9 10 10 9 8 7 6 8
11 11 11 9 9 9 8 7 8 9 10 11 13 15 17 22 11 11 11 7 3 2 3 6 6 6 10 12 10 10 10 10 10 11 14 15 13 9 7 6 6 7 9
5 10 8 9 9 8 7 5 6 7 8 10 11 12 14 15 14 15 13 10 2 3 3 2 7 7 9 8 7 9 10 10 12 12 11 9 7 8 12 13 14 17 17
2 4 5 6 6 7 7 6 7 4 6 7 8 9 10 13 15 12 12 15 9 4 2 5 3 8 8 7 7 9 10 10 9 8 8 9 10 11 12 10 9 10 11
4 2 4 5 5 6 5 6 9 9 8 8 7 6 7 10 9 11 13 15 19 11 5 5 4 11 10 10 9 8 9 10 10 9 10 11 12 11 11 12 12 13 12
4 4 4 4 2 2 4 4 5 4 6 5 6 7 7 7 9 9 9 12 15 12 8 5 13 14 12 10 10 9 10 8 9 10 10 10 10 11 11 12 12 11 10
5 4 4 3 4 5 4 5 6 4 5 5 4 5 7 5 4 7 7 11 13 11 11 12 15 15 13 12 11 9 10 8 8 9 9 10 11 12 12 11 10 9 8
6 6 4 4 5 5 4 4 5 6 5 5 4 3 4 4 5 4 4 7 10 11 10 14 12 14 14 13 13 8 9 11 8 9 8 9 10 11 11 11 11 10 9
7 7 6 6 5 5 5 5 5 6 6 5 4 4 3 3 3 2 1 5 9 11 10 17 14 15 16 17 14 12 11 9 9 10 7 8 9 9 9 10 9 8 8
9 8 6 7 7 7 8 7 4 5 6 5 3 4 1 3 3 1 2 6 11 10 13 14 14 12 13 16 15 15 13 13 12 13 11 9 9 9 10 10 9 9 8
8 8 7 8 8 10 3 4 6 6 5 5 5 4 1 2 1 3 4 7 10 11 12 12 12 15 16 18 16 16 14 15 10 14 14 13 12 11 11 11 10 10 10
8 7 9 8 9 8 9 6 7 6 5 5 4 4 6 4 3 2 5 7 7 11 11 11 13 15 16 21 19 19 20 19 11 11 21 16 15 14 13 14 14 11 11
5 6 8 7 8 7 10 11 10 8 6 5 5 4 6 1 2 2 4 4 4 6 9 8 9 12 15 19 23 20 19 12 12 8 20 13 15 15 16 14 15 14 13
4 5 5 4 7 8 12 14 13 11 9 8 6 4 4 3 4 6 3 4 4 4 5 7 7 11 13 14 18 16 14 15 9 12 20 16 18 16 18 17 18 20 18
4 3 3 5 6 7 10 14 14 14 13 10 9 8 10 7 6 6 4 3 5 6 6 5 7 10 11 13 18 19 16 18 18 13 19 20 17 18 8 18 20 22 24
Wind_Direction
200 212 205 199 223 197 197 209 212 222 228 224 241 256 237 246 249 248 222 223 226 242 239 239 240 241 242 241 240 241 241 243 249 248 246 245 258 248 257 261 263 271 271
190 205 211 210 206 212 223 216 205 217 221 235 218 234 241 246 237 247 254 217 238 246 243 242 241 239 241 241 243 245 243 240 245 252 252 253 251 253 257 258 265 267 276
204 215 211 209 221 209 233 228 213 214 235 247 247 236 238 242 255 243 245 261 234 246 241 235 236 235 240 242 243 250 253 248 246 248 251 252 248 254 259 258 258 260 264
223 210 226 216 222 205 219 230 226 229 229 225 228 237 240 247 245 246 254 256 266 262 242 233 245 240 239 239 243 245 248 250 249 248 247 249 245 243 242 251 257 260 274
217 216 215 219 223 233 206 215 226 232 235 246 242 251 250 253 257 255 247 247 246 259 241 239 254 231 247 243 241 242 242 245 248 251 252 251 247 247 245 249 259 266 285
221 226 226 227 226 237 244 214 224 231 244 239 237 259 260 271 272 280 267 251 258 247 256 242 253 228 235 245 241 242 241 239 245 250 251 253 250 247 246 250 259 256 266
222 224 226 219 220 223 235 239 226 238 258 264 274 266 270 275 268 265 262 251 270 250 253 261 280 272 263 265 251 252 251 246 245 251 254 260 258 251 249 253 261 257 258
220 214 213 217 220 235 233 240 237 247 245 255 243 269 270 283 256 252 250 248 275 259 258 264 273 266 266 268 232 251 239 245 246 252 254 257 260 255 250 258 262 255 259
204 211 219 225 237 238 232 232 237 241 245 249 229 230 227 251 255 244 228 231 272 282 272 273 277 272 270 271 268 236 237 244 241 240 244 247 247 243 247 244 245 250 248
210 197 198 218 232 245 248 253 249 243 240 241 228 228 233 246 328 325 199 180 201 336 314 285 286 272 268 270 267 256 272 203 208 213 220 208 224 223 234 252 260 239 235
208 206 209 237 241 249 255 252 247 242 232 237 225 194 230 264 250 228 279 221 197 7 355 333 327 308 313 289 120 108 141 154 177 178 180 179 185 185 166 154 159 186 181
187 201 197 203 219 250 260 255 254 239 232 234 236 234 226 236 227 223 242 234 175 59 344 303 342 25 86 104 104 109 129 137 148 151 143 134 132 126 121 121 126 135 147
175 192 203 212 217 235 252 254 256 255 245 240 237 236 233 240 254 247 242 220 144 134 79 74 101 121 105 114 106 110 112 120 133 141 142 139 139 133 129 142 147 149 145
127 158 203 211 207 218 221 226 242 250 244 240 243 251 258 255 246 236 227 206 123 133 109 153 105 104 124 118 117 136 136 139 141 143 145 149 154 144 137 134 131 127 123
216 215 227 239 211 202 201 201 207 229 260 244 238 242 256 265 255 237 233 216 183 161 144 177 139 140 135 125 128 126 139 145 152 156 151 149 148 150 149 152 149 148 146
260 249 245 246 213 211 208 207 221 205 234 246 244 231 252 262 261 256 240 220 216 223 151 156 169 159 154 146 135 142 145 146 143 142 146 148 148 147 146 145 142 141 138
227 224 229 261 249 254 258 253 260 236 235 250 257 256 263 255 259 251 244 220 216 204 144 120 160 163 159 158 145 145 126 130 141 149 152 150 147 146 146 146 146 145 143
205 205 216 225 244 245 271 275 263 263 253 256 272 262 275 284 281 270 244 209 201 179 152 145 159 167 164 159 153 161 157 151 143 156 160 158 154 149 149 154 159 160 165
214 219 216 219 230 246 258 270 286 269 254 252 256 264 274 282 284 301 274 200 183 159 152 162 150 171 170 167 159 163 149 143 146 157 157 157 163 164 169 170 174 179 181
229 235 237 243 249 252 258 249 265 269 260 243 257 263 279 294 294 292 314 169 158 147 154 154 154 163 168 168 168 171 166 166 158 158 155 170 156 169 171 177 180 186 191
233 243 240 241 253 252 256 218 249 260 252 247 238 258 150 303 248 169 147 162 161 164 158 162 158 161 170 177 186 187 186 181 181 175 176 181 175 176 190 185 191 186 183
236 242 253 251 257 262 306 262 244 279 260 260 243 244 252 19 106 219 194 178 176 174 171 176 177 181 188 192 191 188 179 176 181 199 192 193 188 192 193 191 198 189 185
242 239 257 261 270 270 243 255 237 240 258 246 249 246 258 127 175 143 201 206 194 186 193 190 193 195 186 194 192 192 196 205 202 204 190 215 200 203 197 205 205 200 189
248 252 262 264 263 233 234 254 242 229 242 244 252 251 268 188 207 175 165 155 178 203 208 199 210 211 208 202 198 199 201 192 208 203 203 221 207 217 186 184 209 209 199
244 258 280 283 252 246 249 242 234 230 245 242 233 236 248 248 239 203 232 172 159 171 201 204 210 223 204 206 198 197 203 196 215 225 208 216 205 224 189 193 205 208 209
202 251 282 274 281 267 260 251 226 228 253 240 229 228 232 217 234 222 211 202 221 201 198 192 221 211 200 204 197 200 206 204 213 215 211 219 206 205 195 211 200 208 209